Location: Unspecified
(0.0000°N, 0.0000°E)
Time: 07:47:49
(UTC+00:00)

Envisat - Pass Details

Date: 27 July 2021
Orbit: 764 x 766 km, 98.2° (Epoch: 31 July)

Event Time Altitude Azimuth Distance (km) Brightness Sun altitude
Rises 04:41:25 0° 18° (NNE) 3,213 6.8 -20.1°
Reaches altitude 10° 04:43:43 10° 21° (NNE) 2,290 6.0 -19.5°
Maximum altitude 04:48:43 64° 102° (ESE) 842 3.4 -18.3°
Drops below altitude 10° 04:53:44 10° 183° (S) 2,301 5.2 -17.2°
Sets 04:56:04 0° 186° (S) 3,229 6.0 -16.6°
